| time (UTC) | temp C | wind direction | speed KPH | gust KPH | rain 1hr cm | rain 24hr cm | rain mn cm | humidity % | barometer mb |
| 20260507171509 | 17 | 13 | 8.0 | 14.5 | 0.00 | 0.00 | 0.00 | 61 | 1013.7 |
| 20260507170007 | 17 | 93 | 8.0 | 14.5 | 0.00 | 0.00 | 0.00 | 60 | 1013.9 |
| 20260507164509 | 18 | 312 | 3.2 | 9.7 | 0.00 | 0.00 | 0.00 | 61 | 1013.8 |
| 20260507163006 | 18 | 45 | 4.8 | 11.3 | 0.00 | 0.00 | 0.00 | 58 | 1013.7 |
| 20260507161504 | 18 | 30 | 6.4 | 9.7 | 0.00 | 0.00 | 0.00 | 59 | 1013.8 |
| 20260507160005 | 18 | 19 | 3.2 | 12.9 | 0.00 | 0.00 | 0.00 | 57 | 1013.8 |
| 20260507154504 | 19 | 40 | 6.4 | 17.7 | 0.00 | 0.00 | 0.00 | 57 | 1013.9 |
| 20260507153003 | 19 | 51 | 4.8 | 16.1 | 0.00 | 0.00 | 0.00 | 57 | 1013.9 |
| 20260507151501 | 19 | 9 | 4.8 | 17.7 | 0.00 | 0.00 | 0.00 | 56 | 1014.0 |
| 20260507150100 | 18 | 319 | 3.2 | 14.5 | 0.00 | 0.00 | 0.00 | 58 | 1014.2 |
| 20260507144605 | 18 | 57 | 3.2 | 11.3 | 0.00 | 0.00 | 0.00 | 62 | 1014.2 |
| 20260507143110 | 18 | 9 | 6.4 | 14.5 | 0.00 | 0.00 | 0.00 | 60 | 1014.4 |
| 20260507141623 | 20 | 11 | 8.0 | 17.7 | 0.00 | 0.00 | 0.00 | 58 | 1014.5 |
| 20260507140056 | 18 | 171 | 1.6 | 9.7 | 0.00 | 0.00 | 0.00 | 56 | 1014.6 |
| 20260507134555 | 18 | 64 | 4.8 | 12.9 | 0.00 | 0.00 | 0.00 | 59 | 1014.8 |
| 20260507133056 | 18 | 55 | 4.8 | 12.9 | 0.00 | 0.00 | 0.00 | 62 | 1014.9 |
| 20260507131605 | 17 | 59 | 4.8 | 12.9 | 0.00 | 0.00 | 0.00 | 60 | 1015.1 |
| 20260507130051 | 17 | 309 | 3.2 | 14.5 | 0.00 | 0.00 | 0.00 | 62 | 1015.3 |
| 20260507124550 | 18 | 294 | 4.8 | 16.1 | 0.00 | 0.00 | 0.00 | 60 | 1015.2 |
| 20260507123104 | 18 | 330 | 11.3 | 17.7 | 0.00 | 0.00 | 0.00 | 63 | 1015.4 |
| 20260507121546 | 17 | 225 | 3.2 | 9.7 | 0.00 | 0.00 | 0.00 | 59 | 1015.5 |
| 20260507120044 | 17 | 16 | 8.0 | 16.1 | 0.00 | 0.00 | 0.00 | 63 | 1015.6 |
| 20260507114548 | 17 | 325 | 6.4 | 12.9 | 0.00 | 0.00 | 0.00 | 65 | 1015.6 |
| 20260507113042 | 17 | 334 | 1.6 | 11.3 | 0.00 | 0.00 | 0.00 | 62 | 1015.7 |
| 20260507111540 | 17 | 336 | 4.8 | 14.5 | 0.00 | 0.00 | 0.00 | 67 | 1015.8 |
| 20260507110037 | 16 | 162 | 4.8 | 14.5 | 0.00 | 0.00 | 0.00 | 70 | 1015.8 |
| 20260507104537 | 16 | 334 | 4.8 | 14.5 | 0.00 | 0.00 | 0.00 | 67 | 1016.0 |
| 20260507103032 | 16 | 304 | 12.9 | 19.3 | 0.00 | 0.00 | 0.00 | 71 | 1016.1 |
| 20260507101528 | 16 | 38 | 4.8 | 11.3 | 0.00 | 0.00 | 0.00 | 70 | 1015.9 |
| 20260507100032 | 15 | 342 | 6.4 | 17.7 | 0.00 | 0.00 | 0.00 | 72 | 1016.0 |
| 20260507094520 | 15 | 347 | 1.6 | 11.3 | 0.00 | 0.00 | 0.00 | 71 | 1016.2 |
| 20260507093015 | 15 | 265 | 3.2 | 16.1 | 0.00 | 0.00 | 0.00 | 69 | 1016.2 |
| 20260507091514 | 14 | 342 | 3.2 | 12.9 | 0.00 | 0.00 | 0.00 | 77 | 1016.1 |
| 20260507090008 | 14 | 282 | 4.8 | 9.7 | 0.00 | 0.00 | 0.00 | 77 | 1016.1 |
| 20260507084503 | 13 | 164 | 0.0 | 4.8 | 0.00 | 0.00 | 0.00 | 81 | 1016.1 |
| 20260507083100 | 13 | 115 | 3.2 | 8.0 | 0.00 | 0.00 | 0.00 | 80 | 1015.9 |
| 20260507081556 | 13 | 291 | 1.6 | 11.3 | 0.00 | 0.00 | 0.00 | 80 | 1016.1 |
| 20260507074546 | 12 | 41 | 4.8 | 11.3 | 0.00 | 0.03 | 0.00 | 87 | 1016.0 |
| 20260507073042 | 10 | 51 | 4.8 | 9.7 | 0.00 | 0.03 | 0.00 | 89 | 1016.0 |
| 20260507071538 | 9 | 9 | 3.2 | 9.7 | 0.00 | 0.03 | 0.00 | 90 | 1015.9 |
| 20260507070036 | 8 | 55 | 4.8 | 8.0 | 0.00 | 0.03 | 0.00 | 92 | 1015.8 |
| 20260507064546 | 7 | 24 | 3.2 | 9.7 | 0.00 | 0.03 | 0.00 | 95 | 1016.0 |
| 20260507063024 | 6 | 44 | 1.6 | 8.0 | 0.00 | 0.03 | 0.00 | 100 | 1015.8 |
| 20260507061519 | 5 | 65 | 1.6 | 6.4 | 0.00 | 0.03 | 0.00 | 100 | 1015.6 |
| 20260507060020 | 5 | 34 | 3.2 | 8.0 | 0.00 | 0.03 | 0.00 | 100 | 1015.7 |
| 20260507054514 | 4 | 325 | 0.0 | 6.4 | 0.00 | 0.05 | 0.00 | 100 | 1015.7 |
| 20260507053013 | 4 | 323 | 1.6 | 4.8 | 0.00 | 0.05 | 0.00 | 100 | 1015.7 |
| 20260507051510 | 4 | 265 | 0.0 | 3.2 | 0.00 | 0.05 | 0.00 | 99 | 1015.4 |
| 20260507050019 | 4 | 44 | 0.0 | 3.2 | 0.00 | 0.05 | 0.00 | 99 | 1015.2 |
| 20260507044504 | 4 | 9 | 1.6 | 3.2 | 0.00 | 0.05 | 0.00 | 98 | 1015.3 |
| 20260507043002 | 4 | 9 | 0.0 | 3.2 | 0.00 | 0.05 | 0.00 | 98 | 1015.0 |
| 20260507041600 | 4 | 51 | 1.6 | 3.2 | 0.00 | 0.05 | 0.00 | 98 | 1015.1 |
| 20260507040055 | 5 | 61 | 1.6 | 3.2 | 0.00 | 0.05 | 0.00 | 98 | 1015.1 |
| 20260507034552 | 5 | 93 | 0.0 | 3.2 | 0.00 | 0.05 | 0.00 | 98 | 1015.0 |
| 20260507033051 | 5 | 325 | 0.0 | 3.2 | 0.00 | 0.05 | 0.00 | 98 | 1014.9 |
| 20260507031548 | 6 | 93 | 0.0 | 3.2 | 0.00 | 0.05 | 0.00 | 98 | 1014.8 |
| 20260507030048 | 6 | 41 | 1.6 | 8.0 | 0.00 | 0.05 | 0.00 | 99 | 1014.8 |
| 20260507024547 | 6 | 336 | 3.2 | 4.8 | 0.00 | 0.05 | 0.00 | 100 | 1014.9 |
| 20260507023045 | 6 | 291 | 1.6 | 3.2 | 0.00 | 0.05 | 0.00 | 100 | 1014.9 |
| 20260507021544 | 6 | 9 | 1.6 | 3.2 | 0.00 | 0.05 | 0.00 | 100 | 1014.8 |
| 20260507020100 | 6 | 325 | 0.0 | 3.2 | 0.00 | 0.05 | 0.00 | 100 | 1014.7 |
| 20260507014546 | 6 | 334 | 0.0 | 1.6 | 0.00 | 0.05 | 0.00 | 100 | 1014.5 |
| 20260507013042 | 6 | 178 | 0.0 | 1.6 | 0.00 | 0.05 | 0.00 | 100 | 1014.5 |
| 20260507011541 | 6 | 309 | 0.0 | 1.6 | 0.00 | 0.05 | 0.00 | 100 | 1014.4 |
| 20260507010056 | 6 | 309 | 0.0 | 3.2 | 0.00 | 0.05 | 0.00 | 100 | 1014.6 |
| 20260507004537 | 6 | 309 | 0.0 | 3.2 | 0.00 | 0.05 | 0.00 | 99 | 1014.6 |
| 20260507003039 | 6 | 279 | 0.0 | 1.6 | 0.00 | 0.05 | 0.00 | 99 | 1014.6 |
| 20260507001535 | 6 | 93 | 0.0 | 1.6 | 0.00 | 0.05 | 0.00 | 99 | 1014.5 |
| 20260507000035 | 6 | 9 | 1.6 | 3.2 | 0.00 | 0.05 | 0.00 | 99 | 1014.4 |
| 20260506234533 | 6 | 178 | 0.0 | 1.6 | 0.00 | 0.05 | 0.00 | 98 | 1014.4 |
| 20260506233034 | 6 | 221 | 0.0 | 3.2 | 0.00 | 0.05 | 0.00 | 98 | 1014.5 |
| 20260506231530 | 6 | 309 | 0.0 | 3.2 | 0.00 | 0.05 | 0.00 | 97 | 1014.4 |
| 20260506230029 | 6 | 309 | 0.0 | 1.6 | 0.00 | 0.05 | 0.00 | 97 | 1014.4 |
| 20260506224525 | 6 | 137 | 1.6 | 3.2 | 0.00 | 0.05 | 0.00 | 96 | 1014.5 |
| 20260506223024 | 7 | 221 | 0.0 | 3.2 | 0.00 | 0.05 | 0.00 | 95 | 1014.4 |
| 20260506221520 | 7 | 279 | 0.0 | 3.2 | 0.00 | 0.05 | 0.00 | 94 | 1014.3 |
| 20260506220018 | 8 | 309 | 0.0 | 1.6 | 0.00 | 0.05 | 0.00 | 91 | 1014.1 |
| 20260506214514 | 8 | 57 | 1.6 | 3.2 | 0.00 | 0.05 | 0.05 | 89 | 1014.2 |
| 20260506213012 | 8 | 41 | 3.2 | 8.0 | 0.00 | 0.05 | 0.05 | 88 | 1014.1 |
| 20260506211510 | 9 | 41 | 1.6 | 6.4 | 0.00 | 0.05 | 0.05 | 88 | 1014.1 |
| 20260506210008 | 9 | 360 | 3.2 | 9.7 | 0.00 | 0.05 | 0.05 | 89 | 1013.9 |
| 20260506204507 | 9 | 329 | 6.4 | 11.3 | 0.00 | 0.05 | 0.05 | 90 | 1013.8 |
| 20260506203005 | 9 | 330 | 6.4 | 16.1 | 0.00 | 0.05 | 0.05 | 91 | 1013.7 |
| 20260506201509 | 10 | 298 | 4.8 | 11.3 | 0.00 | 0.05 | 0.05 | 93 | 1013.4 |
| 20260506200001 | 11 | 9 | 1.6 | 6.4 | 0.00 | 0.05 | 0.05 | 93 | 1013.4 |
| 20260506194600 | 11 | 334 | 0.0 | 3.2 | 0.00 | 0.05 | 0.05 | 90 | 1012.9 |
| 20260506193059 | 12 | 291 | 1.6 | 4.8 | 0.00 | 0.05 | 0.05 | 88 | 1012.8 |
| 20260506191608 | 12 | 301 | 0.0 | 6.4 | 0.00 | 0.05 | 0.05 | 86 | 1012.6 |
| 20260506190056 | 12 | 265 | 1.6 | 9.7 | 0.00 | 0.05 | 0.05 | 85 | 1012.5 |
| 20260506184608 | 13 | 275 | 4.8 | 11.3 | 0.00 | 0.05 | 0.05 | 84 | 1012.5 |
| 20260506183053 | 13 | 289 | 4.8 | 9.7 | 0.00 | 0.05 | 0.05 | 83 | 1012.4 |
| 20260506181550 | 13 | 249 | 4.8 | 11.3 | 0.00 | 0.05 | 0.05 | 82 | 1012.2 |
| 20260506180051 | 13 | 298 | 3.2 | 9.7 | 0.00 | 0.05 | 0.05 | 82 | 1012.0 |
| 20260506174549 | 13 | 316 | 3.2 | 11.3 | 0.00 | 0.05 | 0.05 | 80 | 1011.9 |
| 20260506173049 | 14 | 294 | 4.8 | 11.3 | 0.00 | 0.05 | 0.05 | 77 | 1011.7 |